Tracking 19484 objects as of 20-Jan-2019
HD Live streaming from Space Station
objects crossing your sky now

SAKURA 2A (CS-2A)

Track SAKURA 2A (CS-2A) now!
SAKURA 2A (CS-2A) is classified as:


NORAD ID: 13782
Int'l Code: 1983-006A
Perigee: 35,981.8 km
Apogee: 36,093.0 km
Inclination: 14.3 °
Period: 1,448.6 minutes
Semi major axis: 42408 km
RCS: 5.8102 m2 (large)
Launch date: February 4, 1983
Source: Japan (JPN)
Launch site: TANEGASHIMA SPACE CENTER (TNSTA)
aabbcc
Your satellite tracking list
Your tracking list is empty




NASA's NSSDC Master Catalog

Two Line Element Set (TLE):
1 13782U 83006A   19018.72791633 -.00000324  00000-0  00000+0 0  9994
2 13782  14.3391 342.9459 0013115 284.9472 247.2051  0.99408852100981
Source of the keplerian elements: AFSPC